DG8RAD-1 Weather Reports


Display with metric or nautical units.
time (UTC)temp
F
wind
direction
speed
MPH
gust
MPH
rain 1hr
in
rain 24hr
in
rain mn
in
humidity
%
barometer
mb
20210730191515 69 0 0.0 0.0 0.00 0.00 0.00 65 1015.0
20210730190022 70 0 0.0 0.0 0.00 0.00 0.00 66 1015.0
20210730184516 71 0 0.0 0.0 0.00 0.00 0.00 64 1014.0
20210730183019 74 0 0.0 0.0 0.00 0.00 0.00 59 1014.0
20210730181516 79 0 0.0 0.0 0.00 0.00 0.00 59 1013.0
20210730180022 81 0 0.0 0.0 0.00 0.00 0.00 45 1013.0
20210730174515 82 0 0.0 0.0 0.00 0.00 0.00 43 1013.0
20210730173021 84 0 0.0 0.0 0.00 0.00 0.00 39 1012.0
20210730171516 86 0 0.0 0.0 0.00 0.00 0.00 36 1012.0
20210730170021 87 0 0.0 0.0 0.00 0.00 0.00 33 1012.0
20210730164516 88 0 0.0 0.0 0.00 0.00 0.00 28 5181.9
20210730163019 97 0 0.0 0.0 0.00 0.00 0.00 24 1012.0
20210730161516 10 0 0.0 0.0 0.00 0.00 0.00 17 1012.0
20210730160020 12 0 0.0 0.0 0.00 0.00 0.00 11 1012.0
20210730154516 12 0 0.0 0.0 0.00 0.00 0.00 11 1012.0
20210730153022 11 0 0.0 0.0 0.00 0.00 0.00 15 1012.0
20210730151516 10 0 0.0 0.0 0.00 0.00 0.00 19 1012.0
20210730150017 97 0 0.0 0.0 0.00 0.00 0.00 27 1013.0
20210730144514 92 0 0.0 0.0 0.00 0.00 0.00 31 1013.0
20210730143015 88 0 0.0 0.0 0.00 0.00 0.00 32 1013.0
20210730141514 88 0 0.0 0.0 0.00 0.00 0.00 31 1013.0
20210730140018 89 0 0.0 0.0 0.00 0.00 0.00 33 1013.0
20210730134515 88 0 0.0 0.0 0.00 0.00 0.00 33 1013.0
20210730133015 88 0 0.0 0.0 0.00 0.00 0.00 33 1013.0
20210730131517 88 0 0.0 0.0 0.00 0.00 0.00 34 1014.0
20210730130020 86 0 0.0 0.0 0.00 0.00 0.00 35 1014.0
20210730124524 96 0 0.0 0.0 0.00 0.00 0.00 28 5174.2
20210730123021 83 0 0.0 0.0 0.00 0.00 0.00 37 1014.0
20210730121519 83 0 0.0 0.0 0.00 0.00 0.00 38 1014.0
20210730120025 83 0 0.0 0.0 0.00 0.00 0.00 39 1014.0
20210730114520 83 0 0.0 0.0 0.00 0.00 0.00 39 1015.0
20210730113020 83 0 0.0 0.0 0.00 0.00 0.00 41 1015.0
20210730111519 81 0 0.0 0.0 0.00 0.00 0.00 44 1015.0
20210730110020 80 0 0.0 0.0 0.00 0.00 0.00 42 1015.0
20210730104516 79 0 0.0 0.0 0.00 0.00 0.00 48 1015.0
20210730103020 78 0 0.0 0.0 0.00 0.00 0.00 51 1015.0
20210730101515 77 0 0.0 0.0 0.00 0.00 0.00 48 1015.0
20210730100019 77 0 0.0 0.0 0.00 0.00 0.00 52 1016.0
20210730094514 76 0 0.0 0.0 0.00 0.00 0.00 53 1016.0
20210730093013 75 0 0.0 0.0 0.00 0.00 0.00 56 1016.0
20210730091514 74 0 0.0 0.0 0.00 0.00 0.00 59 1016.0
20210730090016 74 0 0.0 0.0 0.00 0.00 0.00 60 1016.0
20210730084514 73 0 0.0 0.0 0.00 0.00 0.00 62 1016.0
20210730083013 72 0 0.0 0.0 0.00 0.00 0.00 64 1016.0
20210730081514 71 0 0.0 0.0 0.00 0.00 0.00 65 1016.0
20210730080016 70 0 0.0 0.0 0.00 0.00 0.00 67 1016.0
20210730074514 70 0 0.0 0.0 0.00 0.00 0.00 68 1016.0
20210730073016 69 0 0.0 0.0 0.00 0.00 0.00 69 1016.0
20210730071512 68 0 0.0 0.0 0.00 0.00 0.00 69 1017.0
20210730070019 67 0 0.0 0.0 0.00 0.00 0.00 68 1017.0
20210730064516 66 0 0.0 0.0 0.00 0.00 0.00 68 1017.0
20210730063019 66 0 0.0 0.0 0.00 0.00 0.00 70 1017.0
20210730061516 65 0 0.0 0.0 0.00 0.00 0.00 70 1017.0
20210730060021 64 0 0.0 0.0 0.00 0.00 0.00 72 1017.0
20210730054517 64 0 0.0 0.0 0.00 0.00 0.00 74 1017.0
20210730053019 63 0 0.0 0.0 0.00 0.00 0.00 74 1017.0
20210730051517 63 0 0.0 0.0 0.00 0.00 0.00 76 1017.0
20210730050022 62 0 0.0 0.0 0.00 0.00 0.00 78 1017.0
20210730044511 61 0 0.0 0.0 0.00 0.00 0.00 78 1017.0
20210730043017 61 0 0.0 0.0 0.00 0.00 0.00 79 1017.0
20210730041512 61 0 0.0 0.0 0.00 0.00 0.00 78 1017.0
20210730040021 61 0 0.0 0.0 0.00 0.00 0.00 80 1017.0
20210730034512 61 0 0.0 0.0 0.00 0.00 0.00 80 1017.0
20210730033018 61 0 0.0 0.0 0.00 0.00 0.00 80 1017.0
20210730031516 61 0 0.0 0.0 0.00 0.00 0.00 80 1017.0
20210730030017 62 0 0.0 0.0 0.00 0.00 0.00 79 1017.0
20210730024516 61 0 0.0 0.0 0.00 0.00 0.00 79 1017.0
20210730023009 61 0 0.0 0.0 0.00 0.00 0.00 79 1017.0
20210730021514 61 0 0.0 0.0 0.00 0.00 0.00 80 1017.0
20210730020019 61 0 0.0 0.0 0.00 0.00 0.00 79 1017.0
20210730014517 62 0 0.0 0.0 0.00 0.00 0.00 79 1016.0
20210730013021 62 0 0.0 0.0 0.00 0.00 0.00 78 1016.0
20210730011522 62 0 0.0 0.0 0.00 0.00 0.00 79 1017.0
20210730010024 62 0 0.0 0.0 0.00 0.00 0.00 79 1017.0
20210730004524 62 0 0.0 0.0 0.00 0.00 0.00 79 1017.0
20210730003022 62 0 0.0 0.0 0.00 0.00 0.00 78 1017.0
20210730001522 62 0 0.0 0.0 0.00 0.00 0.00 78 1017.0
20210730000024 62 0 0.0 0.0 0.00 0.00 0.00 77 1017.0
20210729224516 64 0 0.0 0.0 0.00 0.00 0.00 77 1017.0
20210729223016 64 0 0.0 0.0 0.00 0.00 0.00 76 1017.0
20210729221516 64 0 0.0 0.0 0.00 0.00 0.00 76 1017.0
20210729220019 65 0 0.0 0.0 0.00 0.00 0.00 75 1017.0
20210729214516 65 0 0.0 0.0 0.00 0.00 0.00 75 1017.0
20210729213018 65 0 0.0 0.0 0.00 0.00 0.00 74 1017.0
20210729211518 66 0 0.0 0.0 0.00 0.00 0.00 72 1017.0
20210729210017 66 0 0.0 0.0 0.00 0.00 0.00 71 1017.0
20210729204514 67 0 0.0 0.0 0.00 0.00 0.00 70 1017.0
20210729203016 67 0 0.0 0.0 0.00 0.00 0.00 69 1017.0
20210729201516 68 0 0.0 0.0 0.00 0.00 0.00 67 1017.0
20210729200021 69 0 0.0 0.0 0.00 0.00 0.00 65 1017.0
20210729194515 69 0 0.0 0.0 0.00 0.00 0.00 63 1017.0
20210729193019 70 0 0.0 0.0 0.00 0.00 0.00 61 1017.0